Showing default

BRO-19, 68422

Orbit data source: Space-Track

BRO-19, 68422 is a payload satellite owned by Unseen Labs (FR) in SSO that was launched on Mon, 30 Mar 2026 UTC via an FALCON 9 launch vehicle from the Air Force Western Test Range (AFWTR). Payload-class satellites include a variety of spacecraft equipped with specific instruments for various scientific and technological missions. These include communications satellites like Starlink; space stations such as the ISS; scientific satellites like the Hubble; Earth observation satellites from companies like Planet Labs, Umbra, and HawkEye 360; GPS; miniature CubeSats for education and research; and military/defense satellites.

Loading next visibility...
Identifier
68422, 2026-067G
Orbit
SSO
Country
Flag of FRFR
Related business
Manufacturer
GOMSpace
Mission
Operational Commercial Sigint
Bus & Motor
CUBESAT 8U, Unknown motor
Mass
15 kg wet, ~15 kg dry
Launch date (UTC)
2026-03-30 (5 months ago)
Launch vehicle
FALCON 9
Launch site
Air Force Western Test Range (AFWTR)
Object type
Payload
Rocket body
Debris
Shape & HBR
Box, 0.6 m
Radar Cross Section
0.100 m², Medium (>0.1 m² and < 1m²)

Expand to show TLE details & history
Last TLE update: 7 hours ago

TLE from 7 hours ago
0 BRO-19
1 68422U 26067G   26249.59932341  .00001979  00000-0  97039-4 0  9990
2 68422  97.4553 206.9423 0001537  56.5594 303.5788 15.19278013 24303
Epoch: 2026-09-06T14:23Z
TLE epoch observation values (Epoch: 2026-09-06T14:23:01.542Z)
Latitude
0.00003°
Longitude
5.49374°
Altitude
510.524 km
Speed
7.609 km/s
True Right ascension
13h 47m 46s
True Declination
0° 00' 00"
Sunlit
Object was in daylight at epoch
Visualization orbit readout
Latitude
Unknown
Longitude
Unknown
Altitude
Unknown
Speed
Unknown
Apparent Right ascension
Unknown
Apparent Declination
Unknown
Sunlit
N/A
Visualization observer readout
Local Sidereal Time
13:20:14
Azimuth
Unknown
Elevation
Unknown
Doppler factor
Unknown
Orbital elements
Apogee altitude
506.048 km
Perigee altitude
503.932 km
Semi-major axis
6,883.127 km
Eccentricity
0.00015
Inclination
97.4553°
RAAN
206.9423°
Arg. of periapsis
56.5594°
True anomaly
303.56412°
Mean anomaly
303.5788°
Eccentric anomaly
303.57146°
Mean motion
3.80071 °/min
Orbital period
94.72 mins
BSTAR
0.000097039
Loading maneuver chart data...
Computing Atmospheric mass density...
Loading historical data...
Loading historical data...
Loading historical data...
Loading historical data...
Loading historical data...
Loading historical data...
Loading historical data...

Documentation

Showing up to 5 results
|